Date,TemperatureHighF,TemperatureAvgF,TemperatureLowF,DewpointHighF,DewpointAvgF,DewpointLowF,HumidityHigh,HumidityAvg,HumidityLow,PressureMaxIn,PressureMinIn,WindSpeedMaxMPH,WindSpeedAvgMPH,GustSpeedMaxMPH,PrecipitationSumIn
2012-1-1,58.8,51.6,44.4,31.2,24.7,19.1,49,36,25,30.06,29.62,0,0,0,0.00
2012-1-2,53.4,44.6,37.4,26.2,20.1,16.5,54,38,26,30.21,30.03,0,0,0,0.00
2012-1-3,60.1,45.7,32.2,25.4,21.8,18.9,62,40,26,30.03,29.65,0,0,0,0.00
2012-1-4,59.9,50.1,41.7,36.0,29.3,22.2,72,46,30,29.77,29.62,0,0,0,0.00
2012-1-5,65.5,49.7,35.4,35.4,29.4,25.6,71,48,25,29.77,29.50,0,0,0,0.00
2012-1-6,71.8,59.6,48.7,50.8,43.3,34.1,84,58,32,29.50,29.26,0,0,0,0.00
2012-1-7,60.8,53.8,47.7,51.1,37.4,32.8,80,54,39,29.50,29.32,0,0,0,0.00
2012-1-8,57.7,50.9,41.7,49.0,42.3,34.1,86,72,65,29.59,29.47,0,0,0,0.00
2012-1-9,52.7,46.8,44.8,45.0,43.2,40.7,93,87,73,29.65,29.50,0,0,0,0.79
2012-1-28,47.3,42.7,38.8,23.6,22.9,21.8,53,45,38,29.88,29.88,0,0,0,0.79
2012-1-29,61.2,46.6,33.8,30.6,25.1,22.7,69,45,25,29.91,29.71,0,0,0,0.00
2012-1-30,67.6,57.0,43.9,53.9,41.0,27.6,74,56,39,29.71,29.53,0,0,0,0.00
2012-1-31,75.0,66.0,60.8,58.6,55.9,51.9,88,72,45,29.56,29.41,0,0,0,0.00
2012-2-1,73.9,63.2,56.3,58.9,52.9,44.4,93,71,41,29.59,29.47,0,0,0,0.00
2012-2-2,73.2,61.5,48.9,62.5,53.1,42.7,90,74,53,29.59,29.41,0,0,0,0.00
2012-2-3,74.3,67.6,56.7,67.3,61.0,44.1,98,80,53,29.50,29.29,0,0,0,0.00
2012-2-4,57.4,51.8,45.5,44.3,35.0,28.5,66,53,40,29.77,29.50,0,0,0,0.00
2012-2-5,50.5,44.8,40.1,33.5,28.7,26.9,69,53,41,29.85,29.77,0,0,0,0.00
2012-2-6,55.9,47.0,36.7,35.1,31.2,28.5,74,56,37,29.83,29.62,0,0,0,0.00
2012-2-7,61.9,54.5,49.3,40.1,36.4,33.9,61,51,36,30.37,29.62,0,0,0,0.00
2012-2-8,49.1,45.8,42.8,36.5,32.6,29.8,74,60,49,30.52,30.35,0,0,0,0.00
2012-2-9,60.6,48.9,37.4,43.1,34.0,28.5,75,57,43,30.37,30.08,0,0,0,0.00
2012-2-10,59.2,50.6,38.5,46.0,36.5,21.9,84,60,37,30.40,30.05,0,0,0,0.08
2012-2-11,39.2,34.8,31.5,22.2,13.2,8.4,56,41,31,30.61,30.40,0,0,0,0.00
2012-2-12,45.3,37.8,31.1,32.1,16.1,9.9,77,43,29,30.64,30.23,0,0,0,0.00
2012-2-13,53.1,43.4,36.7,50.9,38.2,29.4,93,82,71,30.23,29.81,0,0,0,0.20
2012-2-14,66.6,54.7,48.0,51.4,48.1,45.1,95,80,47,29.99,29.81,0,0,0,0.16
2012-2-15,75.7,62.3,55.2,63.0,43.3,22.5,95,59,17,30.05,29.84,0,0,0,0.00
2012-2-16,57.9,51.9,45.3,41.3,38.5,30.5,77,61,36,30.29,30.05,0,0,0,0.00
2012-2-17,64.4,55.9,49.8,51.4,43.2,39.3,85,64,43,30.17,29.99,0,0,0,0.00
2012-2-18,55.0,50.9,47.5,51.7,46.5,43.3,94,85,65,30.08,29.87,0,0,0,1.26
2012-2-19,57.0,48.9,41.9,44.6,40.1,36.8,86,73,50,30.20,30.02,0,0,0,0.00
2012-2-20,65.1,54.8,45.1,52.4,41.3,14.5,88,65,16,30.11,29.87,0,0,0,0.04
2012-2-21,70.3,56.2,39.0,54.0,35.7,24.2,75,49,23,30.17,29.87,0,0,0,0.00
2012-2-22,79.2,66.1,56.3,56.5,40.4,22.0,92,48,12,29.87,29.55,0,0,0,0.00
2012-2-23,83.1,67.3,55.8,37.7,30.7,22.8,43,27,11,29.87,29.43,0,0,0,0.00
2012-2-24,61.0,52.8,45.1,26.5,19.0,11.3,38,27,17,30.37,29.87,0,0,0,0.00
2012-2-25,66.2,51.9,37.0,27.0,21.5,15.7,58,33,15,30.37,30.17,0,0,0,0.00
2012-2-26,67.8,55.7,44.6,47.3,35.7,22.5,63,47,35,30.17,29.99,0,0,0,0.00
2012-2-27,72.7,63.0,55.9,51.1,47.4,44.4,71,58,41,30.29,30.14,0,0,0,0.00
2012-2-28,74.5,66.5,61.9,63.0,57.3,48.0,88,73,59,30.14,29.84,0,0,0,0.00
2012-2-29,77.5,68.1,54.7,64.9,33.5,15.1,86,34,10,30.05,29.90,0,0,0,0.00
2012-3-1,81.9,66.2,50.2,65.3,47.3,31.7,89,53,30,29.93,29.58,0,0,0,0.00
2012-3-2,69.3,63.6,54.1,66.5,41.7,28.8,91,49,27,29.93,29.58,0,0,0,0.00
2012-3-3,63.1,54.7,46.2,31.9,27.8,23.2,56,37,23,30.14,29.93,0,0,0,0.00
2012-3-4,72.0,62.3,55.2,31.1,25.1,14.4,37,25,11,30.20,30.08,0,0,0,0.00
2012-3-5,78.3,63.1,48.0,38.7,32.2,24.4,53,33,15,30.32,30.17,0,0,0,0.00
2012-3-6,73.6,64.7,54.9,52.1,46.7,35.7,79,54,38,30.20,29.96,0,0,0,0.00
2012-3-7,70.5,67.8,65.5,63.5,58.3,52.1,83,72,62,29.99,29.87,0,0,0,0.00
2012-3-8,72.3,59.3,45.3,70.0,52.6,30.8,96,79,51,30.35,29.87,0,0,0,0.20
2012-3-9,54.7,48.8,43.2,31.6,27.0,23.2,58,43,31,30.49,30.32,0,0,0,0.00
2012-3-10,56.5,52.2,50.2,48.4,38.3,26.0,88,62,35,30.35,30.08,0,0,0,1.06
2012-3-11,67.5,57.7,51.6,53.8,50.4,46.7,94,78,48,30.08,29.90,0,0,0,0.16
2012-3-12,81.0,66.1,54.7,60.6,53.3,45.1,96,69,31,30.02,29.93,0,0,0,0.00
2012-3-13,78.8,70.6,63.7,65.0,62.5,57.7,95,77,51,30.14,29.99,0,0,0,0.00
2012-3-14,79.0,72.6,67.6,64.9,62.2,58.9,86,71,54,30.11,30.02,0,0,0,0.00
2012-3-15,81.9,74.0,68.2,64.2,62.1,59.0,81,68,47,30.14,30.02,0,0,0,0.00
2012-3-16,82.0,73.7,68.5,64.5,62.1,57.8,86,68,46,30.11,29.96,0,0,0,0.00
2012-3-17,81.9,73.5,66.9,63.2,59.4,54.1,82,63,41,30.02,29.90,0,0,0,0.00
2012-3-18,77.7,72.4,68.5,63.5,61.6,57.5,79,69,58,29.99,29.81,0,0,0,0.00
2012-3-19,81.5,71.2,61.0,64.9,59.8,47.5,87,69,42,29.84,29.58,0,0,0,1.34
2012-3-20,68.9,62.4,57.0,58.4,50.9,45.0,93,68,47,29.81,29.67,0,0,0,1.89
2012-3-21,68.7,60.5,53.2,49.0,41.3,32.5,80,52,27,29.84,29.75,0,0,0,1.26
2012-3-22,76.1,59.1,52.5,53.2,45.2,35.7,87,62,24,29.96,29.75,0,0,0,0.20
2012-3-23,76.8,62.4,48.7,49.2,43.0,36.5,80,53,26,30.05,29.93,0,0,0,1.26
2012-3-24,82.2,67.3,52.2,56.7,49.7,45.6,84,57,32,30.05,29.96,0,0,0,0.00
2012-3-25,84.7,70.8,57.7,59.8,51.7,42.9,84,55,24,30.08,29.96,0,0,0,1.26
2012-3-26,85.5,71.5,57.4,59.3,52.4,49.3,83,54,30,30.08,29.93,0,0,0,1.26
2012-3-27,82.0,72.3,62.2,56.9,53.7,48.3,78,54,34,30.05,29.96,0,0,0,1.26
2012-3-28,81.7,72.1,65.8,63.0,59.7,54.1,81,65,49,30.05,29.90,0,0,0,1.26
2012-3-29,81.7,70.9,61.7,65.2,60.7,56.2,90,71,47,29.96,29.81,0,0,0,1.26
2012-3-30,86.9,75.2,68.9,67.8,64.6,60.9,90,71,43,29.87,29.75,0,0,0,1.26
2012-3-31,87.8,75.8,66.9,67.6,63.7,60.4,91,68,42,29.84,29.75,0,0,0,0.00
2012-4-1,90.0,78.1,69.1,67.5,63.6,56.7,88,64,34,29.78,29.64,0,0,0,1.26
2012-4-2,88.0,76.6,69.8,67.1,62.7,54.3,84,64,35,29.70,29.55,0,0,0,1.26
2012-4-3,79.5,72.2,69.8,68.6,65.2,62.0,86,79,64,29.84,29.67,0,0,0,0.67
2012-4-4,78.6,70.0,60.6,60.9,51.1,45.4,92,53,32,29.96,29.32,0,0,0,0.39
2012-4-5,79.2,66.8,55.9,53.2,49.5,44.7,82,56,31,29.96,29.81,0,0,0,0.39
2012-4-6,82.2,68.9,56.8,57.2,52.0,48.6,82,58,33,30.08,29.96,0,0,0,0.39
2012-4-7,86.0,74.1,62.6,61.8,57.3,53.4,81,58,36,30.19,30.02,0,0,0,0.39
2012-4-8,73.6,68.1,63.3,64.6,61.8,59.2,91,81,64,30.31,30.19,0,0,0,1.26
2012-4-9,77.4,67.1,61.3,64.7,61.3,58.1,96,82,57,30.22,30.08,0,0,0,0.00
2012-4-10,86.5,73.8,64.0,66.1,59.7,52.3,92,66,32,30.14,30.05,0,0,0,0.39
2012-4-11,85.6,74.0,64.9,63.1,59.0,52.6,81,62,36,30.14,30.02,0,0,0,0.00
2012-4-12,81.5,72.4,64.8,63.3,59.7,55.4,84,65,44,30.08,29.93,0,0,0,0.00
2012-4-13,83.1,74.3,66.9,66.0,61.7,56.9,81,66,49,30.02,29.87,0,0,0,0.00
2012-4-14,82.8,76.3,72.3,65.6,64.5,62.7,78,67,53,29.90,29.72,0,0,0,0.00
2012-4-15,75.9,70.6,60.6,69.1,57.2,42.5,86,64,38,29.93,29.63,0,0,0,0.12
2012-4-16,77.9,65.6,54.3,54.8,45.8,39.2,77,52,28,30.19,29.93,0,0,0,0.00
2012-4-17,82.2,68.0,56.1,56.8,47.5,38.4,76,52,23,30.28,30.16,0,0,0,0.00
2012-4-18,83.7,69.4,56.1,56.8,49.8,45.1,81,53,30,30.19,30.02,0,0,0,0.00
2012-4-19,84.0,69.4,60.8,49.9,45.5,41.3,62,43,29,30.02,29.84,0,0,0,0.00
2012-4-22,68.4,66.0,63.0,43.9,39.7,37.7,45,38,33,30.20,29.59,0,0,0,0.00
2012-4-23,79.5,65.8,52.5,45.2,38.1,32.2,69,39,20,30.29,30.08,0,0,0,0.00
2012-4-24,89.2,71.7,54.9,52.2,46.9,41.2,70,44,26,30.08,29.84,0,0,0,0.00
2012-4-25,90.7,78.2,66.7,64.1,60.1,51.9,79,55,38,29.90,29.72,0,0,0,0.00
2012-4-26,91.4,79.7,70.7,67.0,63.3,59.3,78,59,38,29.87,29.75,0,0,0,0.00
2012-4-27,91.8,79.5,69.6,64.9,59.3,52.9,79,54,28,29.84,29.72,0,0,0,0.00
2012-4-28,90.5,79.6,69.8,62.8,59.8,55.2,76,53,32,29.90,29.78,0,0,0,0.00
2012-4-29,89.6,78.6,70.0,66.8,59.6,50.3,82,55,29,30.02,29.87,0,0,0,0.00
2012-4-30,88.3,79.4,72.9,69.3,64.8,58.9,83,63,41,30.02,29.87,0,0,0,0.00
2012-5-1,90.0,79.4,71.1,66.3,62.5,57.0,82,58,38,29.96,29.81,0,0,0,0.00
2012-5-2,87.4,78.5,72.0,67.0,63.8,60.3,80,62,42,29.93,29.81,0,0,0,0.00
2012-5-3,94.8,82.8,71.4,67.6,63.8,59.6,83,55,34,29.96,29.84,0,0,0,0.00
2012-5-4,96.4,82.4,73.6,70.3,64.0,48.7,79,56,32,29.99,29.84,0,0,0,0.00
2012-5-5,95.5,82.9,69.4,68.5,62.8,51.8,76,52,37,29.96,29.78,0,0,0,0.00
2012-5-6,93.0,82.8,75.2,69.3,64.0,53.5,80,57,30,29.87,29.78,0,0,0,0.00
2012-5-9,70.2,68.8,67.8,47.6,44.9,43.2,48,42,38,29.99,29.99,0,0,0,0.00
2012-5-10,83.7,73.1,59.5,54.3,48.1,38.9,72,44,21,29.99,29.84,0,0,0,0.00
2012-5-11,79.9,71.2,66.4,67.1,61.9,52.9,87,74,48,29.99,29.81,0,0,0,0.91
2012-5-12,74.1,69.1,65.7,66.0,61.0,55.1,92,77,54,30.17,29.99,0,0,0,0.24
2012-5-13,87.4,73.7,62.6,61.1,55.7,47.9,84,58,29,30.23,30.08,0,0,0,0.04
2012-5-14,87.3,74.7,63.3,62.3,54.6,48.7,82,53,29,30.14,30.02,0,0,0,0.04
2012-5-15,88.9,76.8,66.2,58.4,51.3,40.7,71,45,20,30.11,29.99,0,0,0,0.04
2012-5-16,92.8,77.8,63.5,60.1,52.3,42.1,77,46,18,30.11,29.96,0,0,0,0.04
2012-5-17,94.5,79.6,64.8,60.3,51.8,41.0,76,42,19,30.05,29.90,0,0,0,0.04
2012-5-18,92.7,80.4,69.3,60.5,53.5,46.9,70,42,22,29.96,29.84,0,0,0,0.04
2012-5-19,92.3,80.5,70.2,64.9,57.3,49.2,81,48,28,29.99,29.87,0,0,0,0.04
2012-5-20,92.8,80.9,71.6,63.5,56.3,46.5,70,45,22,30.17,29.96,0,0,0,0.04
2012-5-21,90.9,79.3,66.9,62.2,57.5,51.2,72,50,27,30.20,30.05,0,0,0,0.04
2012-5-22,95.5,81.3,66.9,60.1,55.9,49.3,69,45,26,30.08,29.81,0,0,0,0.04
2012-5-23,94.8,83.6,73.6,63.5,58.7,50.5,56,44,30,29.84,29.58,0,0,0,0.04
2012-5-24,97.0,84.4,75.2,67.3,64.4,60.9,69,53,32,29.72,29.61,0,0,0,0.04
2012-5-25,97.2,85.0,74.1,67.7,64.8,60.6,78,53,31,29.93,29.72,0,0,0,0.04
2012-5-26,96.3,85.1,75.9,69.1,62.8,52.4,76,50,26,30.05,29.93,0,0,0,0.04
2012-5-27,95.7,84.0,73.8,67.4,59.1,50.2,80,46,23,30.02,29.84,0,0,0,0.00
2012-5-28,98.8,85.6,73.8,67.3,62.3,55.1,75,48,28,30.02,29.78,0,0,0,0.47
2012-5-29,98.1,92.8,86.0,66.8,62.8,59.3,50,38,30,29.32,29.18,0,0,0,0.08
2012-5-30,93.2,81.6,69.1,66.0,60.5,53.2,80,51,27,29.44,29.12,0,0,0,0.55
2012-5-31,86.4,75.4,68.4,66.0,60.3,44.6,90,63,33,29.41,29.12,0,0,0,0.08
2012-6-1,90.3,76.3,62.8,54.0,48.7,43.3,69,40,20,29.47,29.32,0,0,0,0.00
2012-6-2,97.5,84.4,72.1,66.8,57.7,49.4,68,42,24,29.38,29.23,0,0,0,0.08
2012-6-3,97.3,86.0,76.5,70.1,64.6,55.7,77,51,27,29.35,29.23,0,0,0,0.08
2012-6-4,97.5,88.4,78.4,71.4,66.3,62.5,68,49,37,29.29,29.21,0,0,0,0.00
2012-6-5,98.6,85.9,75.9,68.3,64.4,58.1,75,51,28,29.29,29.15,0,0,0,0.00
2012-6-6,97.0,80.4,70.2,70.0,67.4,57.5,93,68,29,29.35,29.18,0,0,0,0.87
2012-6-7,77.4,72.6,69.6,69.9,66.8,63.7,93,83,64,29.44,29.32,0,0,0,0.20
2012-6-8,90.5,78.4,70.7,65.4,60.2,53.0,79,57,29,29.44,29.29,0,0,0,0.00
2012-6-9,94.3,82.2,69.8,69.3,63.9,58.1,85,57,32,29.32,29.15,0,0,0,0.00
2012-6-10,95.2,85.4,75.7,69.6,66.1,62.3,78,54,37,29.23,29.15,0,0,0,0.00
2012-6-11,99.5,88.5,78.4,73.4,69.5,60.0,84,56,33,29.38,29.18,0,0,0,0.00
2012-6-12,92.3,82.3,75.6,68.2,61.4,50.5,64,50,31,29.53,29.35,0,0,0,0.00
2012-6-13,93.2,78.8,72.3,70.5,65.3,62.5,85,65,38,29.53,29.26,0,0,0,0.75
2012-6-14,83.7,76.5,74.8,72.3,71.2,68.2,89,84,60,29.35,29.29,0,0,0,0.00
2012-6-15,94.8,84.2,72.1,74.3,67.9,63.1,91,60,38,29.44,29.32,0,0,0,0.31
2012-6-16,96.3,85.4,75.9,72.1,66.8,59.2,78,56,30,29.50,29.38,0,0,0,0.00
2012-6-17,94.5,82.7,74.3,71.5,66.6,62.3,78,60,36,29.47,29.26,0,0,0,0.00
2012-6-18,95.2,84.7,75.7,68.3,64.1,58.1,70,52,31,29.29,29.21,0,0,0,0.00
2012-6-19,95.0,82.5,75.4,70.2,67.4,61.0,82,62,37,29.35,29.26,0,0,0,0.00
2012-6-20,95.7,83.6,76.5,70.8,66.2,58.2,82,59,31,29.41,29.32,0,0,0,0.00
2012-6-21,97.9,85.0,75.2,71.7,65.3,57.3,81,55,28,29.50,29.35,0,0,0,0.00
2012-6-22,100.9,86.7,73.8,69.9,63.5,57.8,78,49,25,29.44,29.29,0,0,0,0.00
2012-6-23,102.0,89.6,77.4,70.4,61.8,50.3,76,43,19,29.38,29.29,0,0,0,0.00
2012-6-24,102.6,87.9,73.8,67.8,61.3,50.4,76,45,18,29.41,29.29,0,0,0,0.00
2012-6-25,105.6,89.5,74.5,70.0,60.4,47.4,76,43,15,29.38,29.23,0,0,0,0.00
2012-6-26,108.5,92.2,76.5,71.2,61.4,48.2,75,42,14,29.29,29.15,0,0,0,0.00
2012-6-27,105.3,93.1,83.5,69.4,58.9,43.1,55,35,15,29.38,29.23,0,0,0,0.00
2012-6-28,103.8,91.8,79.7,64.5,56.2,46.6,59,33,16,29.47,29.38,0,0,0,0.00
2012-6-29,102.9,90.6,80.2,69.5,61.9,51.3,69,41,20,29.44,29.29,0,0,0,0.00
2012-6-30,99.5,88.6,79.0,69.6,64.8,56.0,68,48,27,29.35,29.26,0,0,0,0.00
2012-7-1,98.6,85.2,77.7,71.3,65.9,57.6,77,55,28,29.44,29.35,0,0,0,0.00
2012-7-2,95.7,85.4,78.6,72.1,65.8,59.4,78,54,33,29.53,29.41,0,0,0,0.00
2012-7-3,100.4,88.4,78.1,68.7,60.3,47.0,69,42,17,29.50,29.35,0,0,0,0.00
2012-7-4,101.8,89.1,77.7,69.9,62.8,52.8,74,45,21,29.47,29.32,0,0,0,0.00
2012-7-5,103.3,90.2,79.2,70.7,61.7,51.0,72,42,19,29.47,29.35,0,0,0,0.00
2012-7-6,104.5,91.0,78.8,67.9,59.6,51.2,65,38,18,29.50,29.35,0,0,0,0.00
2012-7-7,104.5,86.9,78.8,68.3,63.3,51.9,68,48,18,29.47,29.38,0,0,0,0.00
2012-7-8,101.3,84.8,76.5,74.7,67.9,58.2,83,61,25,29.47,29.32,0,0,0,0.31
2012-7-9,99.1,85.0,77.7,73.7,69.2,58.4,85,63,29,29.44,29.26,0,0,0,0.00
2012-7-10,96.4,83.3,75.9,74.1,68.8,61.5,85,65,33,29.41,29.29,0,0,0,0.08
2012-7-11,97.7,84.5,73.6,73.4,66.1,54.4,87,59,27,29.41,29.32,0,0,0,0.00
2012-7-12,98.1,86.0,75.4,71.6,66.1,57.7,83,55,27,29.41,29.32,0,0,0,0.00
2012-7-13,98.2,86.2,75.2,72.3,64.9,57.5,83,53,27,29.44,29.35,0,0,0,0.00
2012-7-14,98.8,85.9,77.0,73.3,65.5,56.6,81,55,26,29.47,29.35,0,0,0,0.00
2012-7-15,96.4,80.7,73.9,70.2,66.6,58.2,79,64,31,29.47,29.35,0,0,0,0.00
2012-7-16,98.1,84.7,73.2,70.0,65.4,57.0,80,56,26,29.47,29.32,0,0,0,0.00
2012-7-17,100.8,88.1,77.4,71.6,65.3,58.3,81,50,26,29.44,29.32,0,0,0,0.00
2012-7-18,102.9,89.8,77.9,72.8,65.1,56.3,83,48,23,29.47,29.35,0,0,0,0.00
2012-7-19,103.8,91.3,79.5,68.4,62.1,51.4,68,41,19,29.53,29.38,0,0,0,0.00
2012-7-20,108.0,90.1,79.5,72.8,63.6,49.8,78,46,15,29.50,29.35,0,0,0,0.55
2012-7-21,107.8,90.1,75.7,72.3,63.8,47.7,85,50,14,29.41,29.26,0,0,0,0.00
2012-7-22,103.3,91.1,81.3,69.7,63.7,54.0,66,43,20,29.44,29.35,0,0,0,0.00
2012-7-23,100.8,91.6,80.2,68.8,61.3,55.5,68,38,23,29.53,29.41,0,0,0,0.00
2012-7-24,100.9,89.0,78.4,71.5,64.6,57.5,78,47,26,29.53,29.32,0,0,0,0.00
2012-7-25,103.1,90.8,79.7,71.6,65.2,55.3,75,46,23,29.41,29.23,0,0,0,0.00
2012-7-26,103.8,90.8,80.1,70.8,65.5,59.2,71,46,25,29.35,29.23,0,0,0,0.00
2012-7-27,101.1,89.7,80.4,71.9,65.0,53.2,70,46,25,29.47,29.35,0,0,0,0.00
2012-7-28,105.8,92.7,79.9,69.1,60.3,47.3,66,38,15,29.53,29.41,0,0,0,0.00
2012-7-29,107.8,93.2,77.5,62.0,53.6,40.2,57,30,11,29.50,29.35,0,0,0,0.00
2012-7-30,106.9,93.8,80.2,65.8,55.8,44.4,59,31,14,29.47,29.32,0,0,0,0.00
2012-7-31,106.2,91.2,80.6,66.6,60.9,47.6,62,39,16,29.41,29.29,0,0,0,0.00
2012-8-1,109.0,95.1,82.4,68.2,58.9,47.4,62,34,14,29.38,29.23,0,0,0,0.00
2012-8-2,108.7,94.7,81.5,63.6,55.9,45.4,54,31,14,29.32,29.21,0,0,0,0.00
2012-8-3,106.7,93.1,80.6,65.1,59.9,47.9,59,36,16,29.32,29.21,0,0,0,0.00
2012-8-4,105.4,92.6,80.4,69.5,61.5,50.2,68,39,18,29.41,29.26,0,0,0,0.00
2012-8-5,105.6,92.9,81.7,70.2,62.9,52.3,65,40,18,29.56,29.41,0,0,0,0.00
2012-8-6,106.7,93.9,83.5,67.2,61.4,52.9,57,36,18,29.53,29.35,0,0,0,0.00
2012-8-7,106.2,92.6,81.9,65.0,60.0,50.6,54,36,17,29.41,29.29,0,0,0,0.00
2012-8-8,100.9,89.9,82.2,67.7,63.4,58.1,60,43,25,29.47,29.32,0,0,0,0.00
2012-8-9,109.8,91.9,77.7,71.0,60.6,45.8,76,43,13,29.41,29.21,0,0,0,0.00
2012-8-10,100.6,90.3,79.7,65.1,54.6,40.5,56,32,16,29.38,29.26,0,0,0,0.00
2012-8-11,101.3,85.3,71.2,55.3,47.6,32.7,54,31,10,29.44,29.29,0,0,0,0.00
2012-8-12,107.4,89.8,75.7,65.7,58.6,50.5,58,38,17,29.38,29.23,0,0,0,0.00
2012-8-13,105.6,91.9,80.6,66.3,51.6,28.0,60,32,7,29.44,29.32,0,0,0,0.00
2012-8-14,107.6,89.4,75.0,72.3,55.9,36.0,85,37,11,29.38,29.21,0,0,0,0.12
2012-8-15,96.6,87.7,72.3,73.0,67.0,60.9,87,53,33,29.41,29.23,0,0,0,0.12
2012-8-16,90.1,84.5,79.3,70.1,64.2,59.4,69,52,37,29.47,29.32,0,0,0,0.00
2012-8-17,100.8,87.8,76.1,71.9,65.7,59.3,77,51,27,29.44,29.26,0,0,0,0.00
2012-8-18,90.0,79.3,70.7,71.5,65.7,58.7,90,65,44,29.41,29.23,0,0,0,0.71
2012-8-19,93.9,79.7,69.8,70.7,61.7,44.5,91,61,21,29.41,29.29,0,0,0,0.04
2012-8-20,93.2,80.2,69.3,65.3,55.9,46.0,76,47,22,29.44,29.32,0,0,0,0.00
2012-8-21,75.7,72.6,70.5,69.5,64.0,57.1,86,75,54,29.53,29.38,0,0,0,0.28
2012-8-23,82.4,82.0,81.5,61.1,60.7,60.2,50,49,48,29.38,29.35,0,0,0,0.00
2012-8-24,95.9,84.8,74.7,72.0,64.0,55.0,82,53,27,29.38,29.23,0,0,0,0.28
2012-8-25,95.5,85.7,79.2,71.8,66.6,58.9,76,55,31,29.32,29.23,0,0,0,0.28
2012-8-26,88.9,81.0,76.6,75.8,71.2,68.0,87,73,58,29.47,29.32,0,0,0,0.28
2012-8-27,97.0,84.5,74.7,75.7,66.7,55.8,90,60,27,29.50,29.32,0,0,0,0.28
2012-8-28,94.1,84.4,76.3,72.2,67.8,55.5,79,59,40,29.44,29.29,0,0,0,0.28
2012-8-29,96.6,83.7,70.7,60.1,55.5,48.0,64,41,20,29.35,29.18,0,0,0,0.28
2012-8-30,98.1,86.4,75.4,61.6,57.2,49.8,58,38,25,29.23,29.12,0,0,0,0.28
2012-8-31,101.1,88.0,79.0,69.8,62.5,50.7,67,45,19,29.35,29.21,0,0,0,0.28
2012-9-1,101.5,89.7,79.2,72.2,64.7,57.3,75,47,25,29.47,29.35,0,0,0,0.00
2012-9-2,102.9,90.1,78.4,69.7,63.3,54.2,74,44,21,29.44,29.29,0,0,0,0.28
2012-9-3,103.1,90.4,79.2,68.2,59.9,49.7,64,39,19,29.41,29.26,0,0,0,0.28
2012-9-4,104.2,90.8,79.7,70.8,60.9,47.6,70,40,16,29.35,29.21,0,0,0,0.28
2012-9-5,104.2,91.3,79.7,67.6,58.4,48.1,65,36,16,29.32,29.21,0,0,0,0.00
2012-9-6,104.7,91.4,78.6,66.2,56.0,45.4,62,33,14,29.35,29.23,0,0,0,0.00
2012-9-7,105.4,92.2,80.6,64.5,56.5,47.5,57,33,15,29.32,29.18,0,0,0,0.00
2012-9-8,87.1,77.2,69.3,61.8,48.5,36.6,77,41,19,29.56,29.32,0,0,0,0.00
2012-9-9,90.5,74.6,59.9,52.2,45.1,30.6,71,40,12,29.59,29.47,0,0,0,0.00
2012-9-10,94.5,77.8,61.5,56.1,45.0,30.9,72,38,11,29.56,29.41,0,0,0,0.00
2012-9-11,93.4,81.2,70.2,53.1,45.8,36.3,50,31,14,29.53,29.38,0,0,0,0.00
2012-9-12,95.5,82.8,71.6,66.0,57.1,46.3,67,44,21,29.50,29.35,0,0,0,0.00
2012-9-13,87.6,80.1,73.4,72.3,64.0,55.3,83,60,35,29.59,29.41,0,0,0,0.00
2012-9-14,73.9,70.0,66.9,62.9,60.5,58.5,82,72,59,29.65,29.56,0,0,0,0.00
2012-9-15,80.4,70.6,65.5,59.8,57.9,54.6,79,65,43,29.65,29.53,0,0,0,0.00
2012-9-16,71.4,69.2,67.3,67.2,63.8,58.3,91,83,69,29.53,29.38,0,0,0,0.28
2012-9-17,83.8,73.9,68.2,70.9,63.6,56.9,95,73,42,29.41,29.21,0,0,0,0.04
2012-9-18,84.2,72.5,64.0,63.2,51.4,31.8,88,54,16,29.50,29.32,0,0,0,0.00
2012-9-19,89.1,72.4,57.0,59.6,44.6,34.5,82,42,15,29.56,29.44,0,0,0,0.00
2012-9-20,95.0,79.0,64.6,55.3,49.8,44.4,59,38,18,29.47,29.35,0,0,0,0.00
2012-9-21,96.3,81.6,67.8,56.0,47.4,31.8,61,34,11,29.41,29.29,0,0,0,0.00
2012-9-22,97.2,81.3,66.7,60.2,47.6,33.3,62,35,11,29.53,29.38,0,0,0,0.00
2012-9-23,95.7,80.8,66.6,59.5,52.7,43.4,71,41,17,29.59,29.47,0,0,0,0.00
2012-9-24,97.5,84.3,72.7,66.3,54.5,36.3,71,40,14,29.56,29.35,0,0,0,0.00
2012-9-25,96.1,84.1,74.1,67.8,57.4,43.9,79,45,18,29.41,29.26,0,0,0,0.00
2012-9-26,94.6,83.9,75.6,68.8,59.3,48.9,77,47,22,29.44,29.32,0,0,0,0.00
2012-9-27,92.7,83.0,75.4,68.3,61.1,51.6,75,50,27,29.53,29.41,0,0,0,0.00
2012-9-28,89.1,79.1,72.1,66.3,63.2,56.4,75,60,36,29.50,29.35,0,0,0,0.00
2012-9-29,75.7,71.0,67.3,69.6,66.9,64.8,96,87,71,29.41,29.23,0,0,0,2.01
2012-9-30,74.1,68.5,62.4,66.3,58.7,46.0,96,74,41,29.32,29.26,0,0,0,0.12
2012-10-1,82.8,70.3,58.5,63.0,50.4,40.5,91,55,24,29.29,29.23,0,0,0,0.00
2012-10-2,80.1,71.2,65.1,56.0,51.3,46.4,67,51,32,29.41,29.29,0,0,0,0.00
2012-10-3,84.6,71.9,59.5,57.7,49.1,38.8,82,50,20,29.44,29.35,0,0,0,0.00
2012-10-4,87.1,76.9,67.6,65.5,58.8,48.4,71,54,44,29.53,29.44,0,0,0,0.00
2012-10-5,85.6,74.9,61.0,68.3,59.6,46.1,80,60,44,29.53,29.41,0,0,0,0.00
2012-10-6,61.2,55.9,50.2,46.3,41.9,34.7,68,59,51,29.68,29.53,0,0,0,0.00
2012-10-7,57.9,52.9,50.0,37.5,32.8,28.3,58,47,36,29.74,29.62,0,0,0,0.00
2012-10-8,67.6,55.5,42.4,40.9,36.5,31.4,74,51,32,29.71,29.47,0,0,0,0.00
2012-10-9,81.1,67.4,55.8,63.6,53.3,40.9,76,61,45,29.50,29.26,0,0,0,0.00
2012-10-10,72.5,68.1,63.7,66.8,61.6,58.7,92,80,71,29.56,29.38,0,0,0,0.00
2012-10-11,86.4,74.0,65.8,72.6,66.6,58.8,96,79,48,29.56,29.44,0,0,0,0.00
2012-10-12,87.1,77.6,71.2,70.6,65.9,59.9,91,69,44,29.59,29.47,0,0,0,0.00
2012-10-13,84.6,77.1,72.1,70.2,67.1,64.4,83,72,54,29.50,29.23,0,0,0,0.00
2012-10-14,81.5,71.6,63.0,70.0,55.0,44.2,88,60,29,29.50,29.26,0,0,0,0.75
2012-10-15,82.4,67.5,56.1,56.7,48.3,38.4,83,55,22,29.56,29.38,0,0,0,0.00
2012-10-16,76.3,68.1,61.2,63.5,53.0,47.2,84,60,43,29.41,29.12,0,0,0,0.00
2012-10-17,86.5,75.0,65.1,65.3,54.2,38.6,85,54,22,29.23,28.97,0,0,0,0.00
2012-10-18,75.0,64.7,55.2,46.1,32.7,19.6,55,33,13,29.44,29.21,0,0,0,0.00
2012-10-19,76.6,61.4,48.7,42.0,34.3,20.3,71,42,13,29.47,29.32,0,0,0,0.00
2012-10-20,86.4,71.0,54.9,68.0,52.7,36.8,76,53,41,29.32,29.15,0,0,0,0.00
2012-10-21,88.9,80.6,74.7,69.7,66.5,60.6,81,64,41,29.29,29.18,0,0,0,0.00
2012-10-22,85.6,76.8,73.6,69.8,65.8,56.2,84,70,44,29.41,29.29,0,0,0,0.00
2012-10-23,85.8,77.1,71.2,67.1,64.3,60.8,84,66,45,29.38,29.29,0,0,0,0.00
2012-10-24,84.9,75.9,69.8,66.6,61.9,56.8,86,63,41,29.41,29.23,0,0,0,0.00
2012-10-25,81.3,70.3,57.6,67.1,56.5,36.4,84,63,44,29.50,29.21,0,0,0,0.00
2012-10-26,57.7,53.6,49.3,38.8,32.9,25.7,56,46,37,29.74,29.50,0,0,0,0.00
2012-10-27,59.4,49.7,41.2,40.3,27.6,22.5,74,43,25,29.77,29.59,0,0,0,0.00
2012-10-28,63.9,49.8,38.8,35.5,29.1,23.9,73,48,24,29.71,29.59,0,0,0,0.00
2012-10-29,68.2,52.3,39.2,42.0,30.6,24.1,77,48,20,29.71,29.53,0,0,0,0.00
2012-10-30,75.9,59.1,44.1,40.4,36.4,33.8,73,46,23,29.53,29.35,0,0,0,0.00
2012-10-31,80.4,64.8,53.1,49.3,43.3,37.2,75,49,22,29.44,29.35,0,0,0,0.00
2012-11-1,85.3,66.3,51.1,51.8,45.5,37.3,80,52,19,29.47,29.32,0,0,0,0.00
2012-11-2,86.2,71.8,57.9,57.6,48.0,37.5,72,46,19,29.41,29.29,0,0,0,0.00
2012-11-3,82.4,72.4,64.4,63.5,55.8,46.6,86,58,39,29.50,29.32,0,0,0,0.00
2012-11-4,73.6,63.9,56.5,51.9,41.8,36.5,68,46,27,29.56,29.44,0,0,0,0.00
2012-11-5,75.0,62.2,52.3,51.0,38.8,27.3,79,47,22,29.53,29.41,0,0,0,0.00
2012-11-6,61.9,51.6,47.5,41.0,36.7,33.7,69,57,39,29.59,29.50,0,0,0,0.00
2012-11-9,82.4,72.9,65.3,61.0,54.5,47.0,81,55,33,29.62,29.38,0,0,0,0.00
2012-11-10,80.2,72.8,66.0,59.9,56.5,51.3,79,58,38,29.68,29.38,0,0,0,0.00
2012-11-11,76.1,66.1,46.9,62.1,53.6,30.5,72,64,43,30.83,29.41,0,0,0,0.00
2012-11-12,56.3,46.6,39.2,31.4,23.0,17.4,59,41,22,31.01,30.83,0,0,0,0.00
2012-11-13,60.6,48.1,34.5,34.1,25.1,19.6,75,44,22,31.01,31.01,0,0,0,0.00
2012-11-14,62.4,51.6,41.0,34.2,27.8,24.3,63,42,24,31.01,31.01,0,0,0,0.00
2012-11-15,65.7,51.7,39.2,35.4,28.8,25.5,69,44,25,31.01,31.01,0,0,0,0.00
2012-11-16,64.8,50.8,39.9,37.1,30.3,25.7,72,48,24,31.01,31.01,0,0,0,0.00
2012-11-17,64.6,50.1,37.4,36.7,29.7,25.2,72,49,24,31.01,31.01,0,0,0,0.00
2012-11-18,68.5,56.6,41.7,37.3,32.5,29.7,69,42,25,31.01,31.01,0,0,0,0.00
2012-11-19,72.1,63.8,58.5,50.7,44.4,31.7,72,50,35,31.01,31.01,0,0,0,0.00
2012-11-20,76.6,63.1,53.2,55.5,49.8,44.8,83,64,33,31.01,31.01,0,0,0,0.00
2012-11-21,78.4,63.0,49.5,55.7,44.9,39.8,83,56,26,31.01,31.01,0,0,0,0.00
2012-11-22,76.3,65.6,56.1,51.8,46.5,41.2,67,51,34,31.01,31.01,0,0,0,0.00
2012-11-23,66.4,60.2,49.6,52.8,31.6,15.8,81,39,16,31.01,31.01,0,0,0,0.00
2012-11-24,61.3,50.5,39.2,30.9,21.4,18.9,51,33,22,31.01,31.01,0,0,0,0.00
2012-11-25,73.9,60.2,44.8,52.6,34.0,22.2,65,38,26,31.01,31.01,0,0,0,0.00
2012-11-26,74.3,62.9,50.5,60.2,46.7,30.0,92,59,23,31.01,31.01,0,0,0,0.00
2012-11-27,60.3,48.0,40.8,36.4,29.8,23.4,67,50,37,31.01,31.01,0,0,0,0.00
2012-11-28,65.5,51.0,36.9,38.9,32.7,28.2,75,52,32,31.01,31.01,0,0,0,0.00
2012-11-29,67.8,55.9,40.5,47.8,36.8,30.1,78,51,25,31.01,28.64,0,0,0,0.00
2012-11-30,74.8,65.4,57.4,60.0,55.0,47.1,89,70,49,31.01,29.44,0,0,0,0.00
2012-12-1,81.3,71.9,64.8,65.5,59.3,54.1,94,68,40,31.01,29.53,0,0,0,0.00
2012-12-2,82.2,72.9,67.8,64.2,58.6,52.7,83,63,39,29.59,29.59,0,0,0,0.00
2012-12-3,79.7,71.3,65.7,60.4,56.3,52.8,82,61,40,29.59,29.59,0,0,0,0.00
2012-12-4,71.8,64.3,53.2,58.0,38.9,23.5,79,42,19,29.59,29.59,0,0,0,0.00
2012-12-5,65.7,55.4,45.0,46.2,36.3,24.1,74,49,32,29.59,29.59,0,0,0,0.00
2012-12-6,69.3,60.5,50.9,53.4,47.3,42.3,91,64,41,29.59,29.59,0,0,0,0.00
2012-12-7,72.0,62.0,54.3,54.4,47.2,38.9,84,60,37,29.59,29.59,0,0,0,0.00
2012-12-8,70.5,60.8,54.0,54.6,48.4,43.8,81,65,44,29.59,29.59,0,0,0,0.00
2012-12-9,68.9,59.9,41.5,65.8,48.5,12.4,97,69,30,29.59,29.59,0,0,0,0.00
2012-12-10,46.9,38.2,32.0,23.9,14.1,8.3,70,38,29,29.59,29.59,0,0,0,0.00
2012-12-11,49.5,37.7,27.7,20.2,12.8,4.1,60,38,16,29.59,29.59,0,0,0,0.00
2012-12-12,58.1,43.7,28.6,23.7,17.1,12.0,55,36,22,29.59,0.00,0,0,0,0.00
2012-12-13,64.8,52.2,38.1,28.6,21.1,14.7,44,30,24,0.00,0.00,0,0,0,0.00
2012-12-14,65.1,58.2,53.1,59.5,40.8,20.5,93,56,27,0.00,0.00,0,0,0,0.20
2012-12-15,72.3,62.6,54.5,59.5,39.7,23.1,94,50,16,0.00,0.00,0,0,0,0.00
2012-12-16,71.6,61.0,54.9,45.4,36.8,27.3,65,43,21,0.00,0.00,0,0,0,0.00
2012-12-17,63.0,53.2,45.9,36.8,32.6,27.3,65,46,34,29.38,0.00,0,0,0,0.00
2012-12-18,76.3,58.4,44.1,39.8,29.2,19.6,62,37,13,29.29,29.18,0,0,0,0.00
2012-12-19,77.9,69.7,58.1,62.6,53.6,15.2,89,61,15,29.29,29.00,0,0,0,0.04
2012-12-20,58.1,45.9,37.0,26.0,13.0,2.1,41,28,13,29.88,29.29,0,0,0,0.00
2012-12-21,64.4,46.8,31.8,17.1,12.4,8.1,45,27,13,29.91,29.74,0,0,0,0.00
2012-12-22,68.0,53.1,35.6,42.5,27.2,11.9,55,37,24,29.74,29.47,0,0,0,0.00
2012-12-23,66.4,58.5,47.5,52.0,35.5,16.2,83,47,16,29.47,29.29,0,0,0,0.00
2012-12-24,54.5,45.4,35.8,28.1,23.4,19.8,52,42,30,29.50,29.23,0,0,0,0.00
2012-12-25,48.7,39.2,29.8,45.6,32.4,18.8,93,77,43,29.62,29.06,0,0,0,1.02
2012-12-26,44.2,30.0,23.5,31.1,15.5,10.6,63,54,41,29.74,29.59,0,0,0,0.00
2012-12-27,48.7,38.0,28.8,44.3,28.9,17.8,87,70,58,29.59,29.32,0,0,0,0.00
2012-12-28,45.5,40.0,33.6,41.9,31.5,17.6,92,73,51,29.68,29.32,0,0,0,0.00
2012-12-29,46.4,36.4,29.8,21.9,18.2,14.3,60,48,34,29.88,29.68,0,0,0,0.00
2012-12-30,50.2,40.6,30.0,28.2,21.0,18.4,70,47,29,29.91,29.68,0,0,0,0.00
2012-12-31,50.9,46.5,41.0,47.6,40.6,22.2,92,81,41,29.68,29.41,0,0,0,0.20
2013-1-1,48.4,42.7,37.4,44.7,33.3,23.6,87,70,57,29.74,29.47,0,0,0,0.00